Overview Statistics Trail Chart Weather Telemetry Raw packets
 

This is the latest recevied weather packets stored in our database for station/object KN6CRX-10. If no packets are shown the sender has not sent any weather packets the latest 10 day(s).

<< 13 14 15 16 17 18 19 >>
Time Temp. Humidity Pressure Rain* Wind** Luminosity Snow
1788329291 15° C 85% 1015.2 hPa 0 mm - 0 W/m² -
1788328986 14.44° C 83% 1015.2 hPa 1.27 mm - 0 W/m² -
1788328682 14.44° C 91% 1014.9 hPa 1.27 mm - 0 W/m² -
1788328378 14.44° C 90% 1015.3 hPa 0 mm - 0 W/m² -
1788328078 14.44° C 91% 1015.3 hPa 1.78 mm - 0 W/m² -
1788327774 13.89° C 89% 1015.1 hPa 1.78 mm - 0 W/m² -
1788327469 14.44° C 89% 1015.1 hPa 0 mm - 0 W/m² -
1788327169 14.44° C 87% 1014.9 hPa 0 mm - 0 W/m² -
1788326868 14.44° C 82% 1014.6 hPa 11.94 mm - 0 W/m² -
1788326564 15.56° C 79% 1014.9 hPa 21.08 mm - 0 W/m² -
1788326263 16.67° C 72% 1014.6 hPa 14.99 mm - 0 W/m² -
1788325958 17.78° C 67% 1016.2 hPa 1.78 mm - 0 W/m² -
1788325653 17.78° C 63% 1016.1 hPa 0 mm - 0 W/m² -
1788325348 17.78° C 61% 1015.6 hPa 0 mm - 0 W/m² -
1788325048 17.78° C 58% 1015.2 hPa 0 mm - 0 W/m² -
1788324744 17.78° C 57% 1014.9 hPa 0 mm - 0 W/m² -
1788324440 17.22° C 58% 1015.1 hPa 0 mm - 0 W/m² -
1788324135 17.22° C 59% 1014.8 hPa 0 mm - 0 W/m² -
1788323835 17.22° C 59% 1015.1 hPa 0 mm - 0 W/m² -
1788323531 17.22° C 59% 1015.3 hPa 0 mm - 0 W/m² -
1788323230 17.22° C 59% 1015.2 hPa 0 mm - 0 W/m² -
1788322925 17.22° C 58% 1015.2 hPa 0 mm - 0 W/m² -
1788322620 17.22° C 58% 1015.2 hPa 0 mm - 0 W/m² -
1788322315 17.22° C 58% 1014.8 hPa 0 mm - 0 W/m² -
1788322014 17.22° C 58% 1015.2 hPa 0 mm - 0 W/m² -

* Rain latest hour (hover to see other rain measurements)
** Current wind speed in m/s (hover to see current wind gust speed)